| time (UTC) | temp F | wind direction | speed MPH | gust MPH | rain 1hr in | rain 24hr in | rain mn in | humidity % | barometer mb |
| 20260503233516 | 79 | 329 | 3.0 | 6.0 | 0.00 | 0.00 | 0.00 | 38 | 1002.0 |
| 20260503232516 | 79 | 354 | 4.0 | 10.0 | 0.00 | 0.00 | 0.00 | 38 | 1002.2 |
| 20260503231517 | 79 | 332 | 3.0 | 9.0 | 0.00 | 0.00 | 0.00 | 38 | 1002.3 |
| 20260503230517 | 79 | 338 | 3.0 | 9.0 | 0.00 | 0.00 | 0.00 | 39 | 1002.4 |
| 20260503225517 | 80 | 336 | 3.0 | 7.0 | 0.00 | 0.00 | 0.00 | 39 | 1002.6 |
| 20260503224517 | 80 | 307 | 3.0 | 8.0 | 0.00 | 0.00 | 0.00 | 39 | 1002.8 |
| 20260503223517 | 80 | 103 | 2.0 | 5.0 | 0.00 | 0.00 | 0.00 | 38 | 1002.9 |
| 20260503222517 | 80 | 358 | 2.0 | 4.0 | 0.00 | 0.00 | 0.00 | 38 | 1003.1 |
| 20260503221518 | 80 | 52 | 3.0 | 8.0 | 0.00 | 0.00 | 0.00 | 39 | 1003.1 |
| 20260503220518 | 79 | 289 | 2.0 | 7.0 | 0.00 | 0.00 | 0.00 | 40 | 1003.3 |
| 20260503215518 | 79 | 338 | 3.0 | 7.0 | 0.00 | 0.00 | 0.00 | 39 | 1003.3 |
| 20260503214518 | 79 | 349 | 2.0 | 6.0 | 0.00 | 0.00 | 0.00 | 40 | 1003.4 |
| 20260503213539 | 79 | 334 | 5.0 | 10.0 | 0.00 | 0.00 | 0.00 | 39 | 1003.5 |
| 20260503212516 | 79 | 339 | 3.0 | 9.0 | 0.00 | 0.00 | 0.00 | 40 | 1003.7 |
| 20260503211515 | 78 | 339 | 3.0 | 8.0 | 0.00 | 0.00 | 0.00 | 41 | 1003.8 |
| 20260503210516 | 78 | 33 | 2.0 | 7.0 | 0.00 | 0.00 | 0.00 | 44 | 1003.8 |
| 20260503205516 | 78 | 347 | 3.0 | 9.0 | 0.00 | 0.00 | 0.00 | 44 | 1004.0 |
| 20260503204516 | 77 | 48 | 2.0 | 6.0 | 0.00 | 0.00 | 0.00 | 44 | 1004.1 |
| 20260503203516 | 77 | 74 | 2.0 | 7.0 | 0.00 | 0.00 | 0.00 | 45 | 1004.1 |
| 20260503202517 | 77 | 36 | 2.0 | 6.0 | 0.00 | 0.00 | 0.00 | 44 | 1004.2 |
| 20260503201517 | 77 | 84 | 3.0 | 8.0 | 0.00 | 0.00 | 0.00 | 44 | 1004.3 |
| 20260503200517 | 76 | 359 | 2.0 | 6.0 | 0.00 | 0.00 | 0.00 | 45 | 1004.5 |
| 20260503195557 | 76 | 338 | 3.0 | 7.0 | 0.00 | 0.00 | 0.00 | 47 | 1004.6 |
| 20260503194517 | 76 | 355 | 3.0 | 7.0 | 0.00 | 0.00 | 0.00 | 48 | 1004.8 |
| 20260503193517 | 77 | 335 | 2.0 | 7.0 | 0.00 | 0.00 | 0.00 | 47 | 1004.9 |
| 20260503192517 | 76 | 333 | 2.0 | 5.0 | 0.00 | 0.00 | 0.00 | 48 | 1005.1 |
| 20260503191538 | 76 | 332 | 3.0 | 7.0 | 0.00 | 0.00 | 0.00 | 48 | 1005.2 |
| 20260503190518 | 75 | 360 | 2.0 | 6.0 | 0.00 | 0.00 | 0.00 | 48 | 1005.2 |
| 20260503185518 | 75 | 358 | 2.0 | 7.0 | 0.00 | 0.00 | 0.00 | 47 | 1005.3 |
| 20260503184518 | 74 | 315 | 2.0 | 7.0 | 0.00 | 0.00 | 0.00 | 48 | 1005.4 |
| 20260503183538 | 73 | 172 | 2.0 | 6.0 | 0.00 | 0.00 | 0.00 | 50 | 1005.5 |
| 20260503182516 | 72 | 322 | 4.0 | 9.0 | 0.00 | 0.00 | 0.00 | 51 | 1005.4 |
| 20260503181536 | 72 | 308 | 2.0 | 6.0 | 0.00 | 0.00 | 0.00 | 51 | 1005.5 |
| 20260503180537 | 71 | 353 | 3.0 | 7.0 | 0.00 | 0.00 | 0.00 | 52 | 1005.5 |
| 20260503175516 | 71 | 325 | 3.0 | 9.0 | 0.00 | 0.00 | 0.00 | 53 | 1005.5 |
| 20260503174536 | 71 | 345 | 3.0 | 7.0 | 0.00 | 0.00 | 0.00 | 54 | 1005.6 |
| 20260503173516 | 70 | 298 | 3.0 | 5.0 | 0.00 | 0.00 | 0.00 | 55 | 1005.7 |
| 20260503172516 | 70 | 330 | 3.0 | 9.0 | 0.00 | 0.00 | 0.00 | 56 | 1005.7 |
| 20260503171517 | 69 | 303 | 2.0 | 5.0 | 0.00 | 0.00 | 0.00 | 57 | 1005.8 |
| 20260503170517 | 68 | 49 | 2.0 | 7.0 | 0.00 | 0.00 | 0.00 | 58 | 1005.8 |
| 20260503150516 | 63 | 292 | 1.0 | 5.0 | 0.00 | 0.00 | 0.00 | 63 | 1005.6 |
| 20260503130518 | 58 | 124 | 1.0 | 3.0 | 0.00 | 0.00 | 0.00 | 69 | 1004.7 |
| 20260503110517 | 59 | 123 | 1.0 | 3.0 | 0.00 | 0.00 | 0.00 | 67 | 1005.1 |
| 20260503081516 | 61 | 207 | 0.0 | 2.0 | 0.00 | 0.00 | 0.00 | 60 | 1005.2 |
| 20260503080517 | 62 | 261 | 1.0 | 3.0 | 0.00 | 0.00 | 0.00 | 58 | 1005.2 |
| 20260503072517 | 62 | 183 | 0.0 | 2.0 | 0.00 | 0.00 | 0.00 | 58 | 1005.1 |
| 20260503071517 | 62 | 194 | 0.0 | 1.0 | 0.00 | 0.00 | 0.00 | 58 | 1005.1 |
| 20260503070518 | 62 | 239 | 0.0 | 2.0 | 0.00 | 0.00 | 0.00 | 58 | 1005.0 |
| 20260503054516 | 63 | 165 | 0.0 | 2.0 | 0.00 | 0.00 | 0.00 | 56 | 1004.9 |
| 20260503053516 | 62 | 160 | 0.0 | 2.0 | 0.00 | 0.00 | 0.00 | 58 | 1004.9 |
| 20260503052516 | 62 | 156 | 0.0 | 2.0 | 0.00 | 0.00 | 0.00 | 60 | 1004.9 |
| 20260503051557 | 62 | 183 | 0.0 | 2.0 | 0.00 | 0.00 | 0.00 | 59 | 1004.8 |
| 20260503050516 | 61 | 259 | 1.0 | 2.0 | 0.00 | 0.00 | 0.00 | 61 | 1004.8 |
| 20260503045516 | 61 | 227 | 0.0 | 2.0 | 0.00 | 0.00 | 0.00 | 65 | 1004.7 |
| 20260503044517 | 62 | 157 | 1.0 | 2.0 | 0.00 | 0.00 | 0.00 | 64 | 1004.7 |
| 20260503043517 | 62 | 163 | 0.0 | 2.0 | 0.00 | 0.00 | 0.00 | 63 | 1004.6 |
| 20260503042517 | 64 | 170 | 0.0 | 2.0 | 0.00 | 0.00 | 0.00 | 61 | 1004.5 |
| 20260503041537 | 65 | 162 | 1.0 | 3.0 | 0.00 | 0.00 | 0.00 | 56 | 1004.5 |
| 20260503040518 | 66 | 129 | 2.0 | 4.0 | 0.00 | 0.00 | 0.00 | 53 | 1004.4 |
| 20260503035538 | 67 | 136 | 1.0 | 3.0 | 0.00 | 0.00 | 0.00 | 51 | 1004.3 |
| 20260503034518 | 67 | 155 | 1.0 | 3.0 | 0.00 | 0.00 | 0.00 | 51 | 1004.2 |
| 20260503033518 | 67 | 236 | 1.0 | 4.0 | 0.00 | 0.00 | 0.00 | 51 | 1003.9 |
| 20260503032518 | 68 | 283 | 2.0 | 5.0 | 0.00 | 0.00 | 0.00 | 50 | 1003.8 |
| 20260503031536 | 68 | 258 | 1.0 | 4.0 | 0.00 | 0.00 | 0.00 | 50 | 1003.8 |
| 20260503030515 | 69 | 294 | 3.0 | 7.0 | 0.00 | 0.00 | 0.00 | 49 | 1003.8 |
| 20260503025656 | 70 | 272 | 2.0 | 5.0 | 0.00 | 0.00 | 0.00 | 48 | 1003.7 |
| 20260503024516 | 70 | 302 | 4.0 | 8.0 | 0.00 | 0.00 | 0.00 | 47 | 1003.8 |
| 20260503023516 | 71 | 305 | 3.0 | 7.0 | 0.00 | 0.00 | 0.00 | 46 | 1003.7 |
| 20260503022516 | 71 | 304 | 3.0 | 9.0 | 0.00 | 0.00 | 0.00 | 46 | 1003.8 |
| 20260503021538 | 72 | 317 | 4.0 | 9.0 | 0.00 | 0.00 | 0.00 | 46 | 1003.8 |
| 20260503020516 | 72 | 304 | 3.0 | 6.0 | 0.00 | 0.00 | 0.00 | 47 | 1003.9 |
| 20260503015517 | 72 | 307 | 3.0 | 13.0 | 0.00 | 0.00 | 0.00 | 47 | 1004.0 |
| 20260503014517 | 72 | 306 | 4.0 | 10.0 | 0.00 | 0.00 | 0.00 | 47 | 1004.1 |
| 20260503013517 | 73 | 313 | 4.0 | 9.0 | 0.00 | 0.00 | 0.00 | 47 | 1004.2 |
| 20260503012517 | 73 | 309 | 4.0 | 10.0 | 0.00 | 0.00 | 0.00 | 47 | 1004.2 |
| 20260503011517 | 73 | 334 | 3.0 | 10.0 | 0.00 | 0.00 | 0.00 | 47 | 1004.3 |
| 20260503010518 | 74 | 322 | 3.0 | 10.0 | 0.00 | 0.00 | 0.00 | 47 | 1004.3 |
| 20260503005518 | 75 | 345 | 3.0 | 8.0 | 0.00 | 0.00 | 0.00 | 46 | 1004.5 |
| 20260503004538 | 75 | 300 | 3.0 | 8.0 | 0.00 | 0.00 | 0.00 | 46 | 1004.5 |
| 20260503003518 | 76 | 330 | 3.0 | 8.0 | 0.00 | 0.00 | 0.00 | 45 | 1004.6 |
| 20260503002518 | 76 | 284 | 2.0 | 6.0 | 0.00 | 0.00 | 0.00 | 45 | 1004.7 |
| 20260503001518 | 75 | 20 | 2.0 | 6.0 | 0.00 | 0.00 | 0.00 | 46 | 1004.8 |
| 20260503000516 | 75 | 320 | 2.0 | 5.0 | 0.00 | 0.00 | 0.00 | 47 | 1004.9 |
| 20260502235536 | 75 | 334 | 3.0 | 9.0 | 0.00 | 0.00 | 0.00 | 47 | 1005.0 |
| 20260502234515 | 75 | 195 | 2.0 | 6.0 | 0.00 | 0.00 | 0.00 | 48 | 1005.2 |